STARLINK-3808, 52366

Orbit data source: Space-Track

STARLINK-3808, 52366 is a payload satellite owned by SpaceX/Seattle (US) in LEO that was launched on Fri, 29 Apr 2022 UTC via an FALCON 9 launch vehicle from the Air Force Eastern Test Range (AFETR). Payload-class satellites include a variety of spacecraft equipped with specific instruments for various scientific and technological missions. These include communications satellites like Starlink; space stations such as the ISS; scientific satellites like the Hubble; Earth observation satellites from companies like Planet Labs, Umbra, and HawkEye 360; GPS; miniature CubeSats for education and research; and military/defense satellites.

Loading next visibility...
Identifier
52366, 2022-045AM
Orbit
LEO
Country
Flag of USUS
Related business
Manufacturer
SpaceX/Seattle
Mission
Operational Commercial Communications
Bus & Motor
STARLINK, Unknown motor
Mass
297 kg wet, ~275 kg dry
Launch date (UTC)
2022-04-29 (4 years ago)
Launch vehicle
FALCON 9
Launch site
Air Force Eastern Test Range (AFETR)
Object type
Payload
Rocket body
Debris
Shape & HBR
Box + 1 Pan, 10.1 m
Radar Cross Section
11.087 m², Large (>1 m²)

Expand to show TLE details & history
Last TLE update: 22 hours ago

TLE from 22 hours ago
0 STARLINK-3808
1 52366U 22045AM  25350.04703986 -.00000878  00000-0 -37086-4 0  9990
2 52366  53.2153 204.6044 0001401  87.9853 272.1300 15.08832019203297
Epoch: 2025-12-16T01:07Z
TLE epoch observation values (Epoch: 2025-12-16T01:07:44.243Z)
Latitude
-0.00001°
Longitude
102.73318°
Altitude
540.629 km
Speed
7.593 km/s
True Right ascension
13h 38m 25s
True Declination
0° 00' 00"
Sunlit
Object was in daylight at epoch
Visualization orbit readout
Latitude
Unknown
Longitude
Unknown
Altitude
Unknown
Speed
Unknown
Apparent Right ascension
Unknown
Apparent Declination
Unknown
Sunlit
N/A
Visualization observer readout
Local Sidereal Time
21:40:19
Azimuth
Unknown
Elevation
Unknown
Doppler factor
Unknown
Orbital elements
Apogee altitude
540.982 km
Perigee altitude
539.044 km
Semi-major axis
6,918.15 km
Eccentricity
0.00014
Inclination
53.2153°
RAAN
204.6044°
Arg. of periapsis
87.9853°
True anomaly
272.11396°
Mean anomaly
272.13°
Eccentric anomaly
272.12198°
Mean motion
3.77188 °/min
Orbital period
95.44 mins
BSTAR
-0.000037086
Loading maneuver chart data...
Computing Atmospheric mass density...
Loading historical data...
Loading historical data...
Loading historical data...
Loading historical data...
Loading historical data...
Loading historical data...
Loading historical data...

Documentation

Showing up to 5 results
|